Regional Weather Roundup
Issued by NWS

Home | Current Version | Previous Version | Text Only | Print | Product List | Glossary Off
Versions: 1 2 3 4 5 6 7 8 9 10 11 12 13 14 15 16 17 18 19 20 21 22 23 24 25 26 27 28 29 30 31 32 33 34 35 36 37 38 39 40 41 42 43 44 45 46 47 48 49 50

000
ASUS43 KIND 271809
RWRIN

WEATHER ROUNDUP FOR INDIANA
NATIONAL WEATHER SERVICE INDIANAPOLIS IN
200 PM EDT THU APR 27 2017

NOTE: "FAIR" INDICATES FEW OR NO CLOUDS BELOW 12,000 FEET WITH NO
SIGNIFICANT WEATHER AND/OR OBSTRUCTIONS TO VISIBILITY.

* - STATION DOES NOT REPORT WEATHER SUCH AS PRECIPITATION OR FOG.

+ - STATION NOT QUALITY CONTROLLED BY THE NATIONAL WEATHER SERVICE.
    USE DATA WITH CAUTION...ESPECIALLY DEWPOINT AND RELATIVE
    HUMIDITY OBSERVATIONS.

INZ001>003-010>013-019-020-271900-
NORTHWEST INDIANA

CITY           SKY/WX    TMP DP  RH WIND       PRES   REMARKS
GARY /AIRPORT/ CLOUDY    48  37  66 SW17G35   29.63R
KNOX *+        CLOUDY    50  25  37 SW20G29   29.64R
LA PORTE +     CLOUDY    48  40  74 SW16G26   29.63R
6HR MIN TEMP:  47; 6HR MAX TEMP:  60;

MICHIGAN CITY+ CLOUDY    48  39  71 SW17G26   29.62R
MONTICELLO +   CLOUDY    48  41  74 W18G26    29.68R
6HR MIN TEMP:  47; 6HR MAX TEMP:  60; 6HR PCP:  0.10;

RENSSELAER +   CLOUDY    46  41  81 W17G23    29.67R
VALPARAISO     CLOUDY    48  41  76 W20       29.64R
6HR MIN TEMP:  48; 6HR MAX TEMP:  61; 6HR PCP:  0.01;


$$

LMZ046-743>745-271900-
SOUTHERN LAKE MICHIGAN

STATION/POSITION TIME  TEMP    WIND        PRES    WAVE
                       AIR SEA DIR/SP/G            HT
                 (UTC) (F)     (DEG/KT/KT) (MB)    (FT)
BURNS HARBOR     1740   47     260/ 23/ 26 1003.4R
MICHIGAN CITY    1740   46     240/ 29/ 31   N/A
5NW MICH CITY    1800   46 48                N/A     5

$$

INZ004-005-014>016-021>024-271900-
NORTH CENTRAL INDIANA

CITY           SKY/WX    TMP DP  RH WIND       PRES   REMARKS
ELKHART        CLOUDY    50  41  71 SW12G17   29.61R
GOSHEN         CLOUDY    53  41  63 SW20G28   29.61R
6HR MIN TEMP:  53; 6HR MAX TEMP:  65;

LOGANSPORT +   CLOUDY    50  41  71 W26G32    29.69
PERU/GRISSOM   CLOUDY    51  45  78 W20       29.66R
6HR MIN TEMP:  51; 6HR MAX TEMP:  62;

ROCHESTER +    CLOUDY    52  43  71 W16G25    29.66R
SOUTH BEND     CLOUDY    49  42  77 SW20G28   29.62
6HR MIN TEMP:  49; 6HR MAX TEMP:  61; 6HR PCP: TRACE;

WARSAW +       CLOUDY    52  41  66 SW17G24   29.63R

$$

INZ006>009-017-018-025>027-271900-
NORTHEAST INDIANA

CITY           SKY/WX    TMP DP  RH WIND       PRES   REMARKS
ANGOLA *+      CLOUDY    55  46  71 W20       29.59R
AUBURN +       CLOUDY    55  45  67 SW15G21   29.62R
FORT WAYNE     PTSUNNY   57  45  64 SW21G29   29.63R
6HR MIN TEMP:  56; 6HR MAX TEMP:  66; 6HR PCP:  0.03;

HUNTINGTON +   CLOUDY    53  45  74 W18G24    29.65R
6HR MIN TEMP:  52; 6HR MAX TEMP:  64; 6HR PCP:  0.01;

KENDALLVILLE + CLOUDY    55  46  71 W17G26    29.61R

$$

INZ028-029-035-036-043>045-051>053-271900-
WEST CENTRAL INDIANA

CITY           SKY/WX    TMP DP  RH WIND       PRES   REMARKS
CRAWFORDSVL +  CLOUDY    48  43  84 SW14      29.72R
6HR MIN TEMP:  46; 6HR MAX TEMP:  50;

GREENCASTLE +  CLOUDY    50  43  76 W9        29.73R
LAFAYETTE      CLOUDY    48  43  82 W13G23    29.69
6HR MIN TEMP:  47; 6HR MAX TEMP:  53;

TERRE HAUTE    CLOUDY    53  44  71 W16       29.73R
6HR MIN TEMP:  50; 6HR MAX TEMP:  54;


$$

INZ030>032-037>040-046>048-054>057-064-065-271900-
CENTRAL INDIANA

CITY           SKY/WX    TMP DP  RH WIND       PRES   REMARKS
ANDERSON       PTSUNNY   55  46  71 W12G23    29.69R
CP ATTERBURY + CLOUDY    59  45  58 W15G21    29.71R
COLUMBUS       PTSUNNY   61  41  48 W12       29.71R
FISHERS *+     CLOUDY    54  46  76 W15G22    29.71R
FRANKFORT +    CLOUDY    52  46  78 W26       29.71R
6HR MIN TEMP:  51; 6HR MAX TEMP:  63;

GREENWOOD *+   CLOUDY    56  45  65 W16G23    29.71R
6HR MIN TEMP:  55; 6HR MAX TEMP:  63;

INDIANAPOLIS   CLOUDY    54  44  69 W16       29.71R
6HR MIN TEMP:  52; 6HR MAX TEMP:  62; 6HR PCP: TRACE;

-EAGLE CREEK   CLOUDY    54  44  69 W14G23    29.70R
6HR MIN TEMP:  52; 6HR MAX TEMP:  63; 6HR PCP: TRACE;

KOKOMO +       CLOUDY    52  44  74 W23       29.68
6HR MIN TEMP:  51; 6HR MAX TEMP:  63;

MARION +       CLOUDY    52  46  82 W20G28    29.69R HAZE
MT COMFORT *+  CLOUDY    55  46  71 W13G21    29.70R
SHELBYVILLE    CLOUDY    60  44  55 W14G23    29.69R
6HR MIN TEMP:  57; 6HR MAX TEMP:  66;

ZIONSVILLE +   CLOUDY    52  45  78 W18       29.71R
6HR MIN TEMP:  49; 6HR MAX TEMP:  61;


$$

INZ033-034-041-042-049-050-058-059-271900-
EAST CENTRAL INDIANA

CITY           SKY/WX    TMP DP  RH WIND       PRES   REMARKS
MUNCIE         CLOUDY    58  46  64 W21       29.67R
6HR MIN TEMP:  56; 6HR MAX TEMP:  65; 6HR PCP:  0.04;

RICHMOND +     CLOUDY    57  50  77 W18G26    29.68R

$$

INZ060-061-067>069-081>083-085>088-271900-
SOUTHWEST INDIANA

CITY           SKY/WX    TMP DP  RH WIND       PRES   REMARKS
EVANSVILLE     CLOUDY    57  46  66 W14       29.79
6HR MIN TEMP:  52; 6HR MAX TEMP:  58; 6HR PCP: TRACE;

HUNTINGBURG *+ CLOUDY    56  48  74 W15G21    29.77
6HR MIN TEMP:  52; 6HR MAX TEMP:  57;

WASHINGTON +   CLOUDY    55  45  68 W13       29.75R
6HR MIN TEMP:  51; 6HR MAX TEMP:  55;


$$

INZ062-063-066-070>080-084-089>092-271900-
SOUTH CENTRAL AND SOUTHEAST INDIANA

CITY           SKY/WX    TMP DP  RH WIND       PRES   REMARKS
BLOOMINGTON    CLOUDY    53  44  71 W12       29.73R
6HR MIN TEMP:  52; 6HR MAX TEMP:  60;

MADISON *+     CLOUDY    57  48  72 SW12G18   29.75R
NORTH VERNON + CLOUDY    55  48  76 SW12      29.73R
SEYMOUR +      CLOUDY    57  48  72 SW13      29.73R

$$




USA.gov is the U.S. government's official web portal to all federal, state and local government web resources and services.